| time (UTC) | temp C | wind direction | speed KPH | gust KPH | rain 1hr cm | rain 24hr cm | rain mn cm | humidity % | barometer mb |
| 20260504201554 | 27 | 79 | 8.0 | 19.3 | 0.00 | 0.00 | 0.00 | 44 | 1015.6 |
| 20260504200057 | 27 | 5 | 9.7 | 20.9 | 0.00 | 0.00 | 0.00 | 44 | 1015.9 |
| 20260504194552 | 28 | 5 | 6.4 | 19.3 | 0.00 | 0.00 | 0.00 | 42 | 1016.1 |
| 20260504193057 | 27 | 50 | 6.4 | 19.3 | 0.00 | 0.00 | 0.00 | 43 | 1016.2 |
| 20260504191557 | 28 | 64 | 6.4 | 19.3 | 0.00 | 0.00 | 0.00 | 43 | 1016.4 |
| 20260504190056 | 28 | 157 | 9.7 | 19.3 | 0.00 | 0.00 | 0.00 | 42 | 1016.7 |
| 20260504184559 | 28 | 313 | 4.8 | 25.7 | 0.00 | 0.00 | 0.00 | 42 | 1016.9 |
| 20260504183104 | 28 | 71 | 9.7 | 20.9 | 0.00 | 0.00 | 0.00 | 42 | 1017.1 |
| 20260504181553 | 27 | 345 | 6.4 | 17.7 | 0.00 | 0.00 | 0.00 | 44 | 1017.3 |
| 20260504180116 | 27 | 75 | 6.4 | 17.7 | 0.00 | 0.00 | 0.00 | 45 | 1017.4 |
| 20260504174557 | 27 | 19 | 4.8 | 14.5 | 0.00 | 0.00 | 0.00 | 45 | 1017.4 |
| 20260504173109 | 27 | 96 | 4.8 | 25.7 | 0.00 | 0.00 | 0.00 | 44 | 1017.5 |
| 20260504171602 | 27 | 127 | 8.0 | 16.1 | 0.00 | 0.00 | 0.00 | 43 | 1017.6 |
| 20260504160103 | 26 | 329 | 8.0 | 17.7 | 0.00 | 0.00 | 0.00 | 40 | 1018.3 |
| 20260504081604 | 16 | 333 | 3.2 | 6.4 | 0.00 | 0.00 | 0.00 | 87 | 1017.3 |
| 20260504044554 | 18 | 352 | 1.6 | 4.8 | 0.00 | 0.00 | 0.00 | 79 | 1018.4 |
| 20260504043056 | 18 | 360 | 1.6 | 6.4 | 0.00 | 0.00 | 0.00 | 78 | 1018.6 |
| 20260504041554 | 18 | 348 | 0.0 | 4.8 | 0.00 | 0.00 | 0.00 | 77 | 1018.5 |
| 20260504040059 | 19 | 352 | 0.0 | 4.8 | 0.00 | 0.00 | 0.00 | 76 | 1018.6 |
| 20260504034557 | 19 | 336 | 3.2 | 8.0 | 0.00 | 0.00 | 0.00 | 75 | 1018.6 |
| 20260504033055 | 19 | 42 | 1.6 | 8.0 | 0.00 | 0.00 | 0.00 | 74 | 1018.6 |
| 20260504031551 | 19 | 34 | 3.2 | 8.0 | 0.00 | 0.00 | 0.00 | 74 | 1018.4 |
| 20260504030055 | 19 | 360 | 3.2 | 8.0 | 0.00 | 0.00 | 0.00 | 73 | 1018.5 |
| 20260504024555 | 19 | 28 | 6.4 | 14.5 | 0.00 | 0.00 | 0.00 | 72 | 1018.6 |
| 20260504023054 | 19 | 344 | 3.2 | 11.3 | 0.00 | 0.00 | 0.00 | 73 | 1018.6 |
| 20260504021554 | 20 | 26 | 1.6 | 14.5 | 0.00 | 0.00 | 0.00 | 72 | 1018.5 |
| 20260504020115 | 20 | 32 | 4.8 | 12.9 | 0.00 | 0.00 | 0.00 | 72 | 1018.3 |
| 20260504014558 | 20 | 19 | 3.2 | 11.3 | 0.00 | 0.00 | 0.00 | 71 | 1018.2 |
| 20260504013110 | 20 | 23 | 3.2 | 14.5 | 0.00 | 0.00 | 0.00 | 71 | 1018.0 |
| 20260504011554 | 20 | 50 | 3.2 | 14.5 | 0.00 | 0.00 | 0.00 | 70 | 1017.9 |
| 20260504010055 | 20 | 34 | 4.8 | 14.5 | 0.00 | 0.00 | 0.00 | 69 | 1017.9 |
| 20260504004555 | 20 | 53 | 4.8 | 12.9 | 0.00 | 0.00 | 0.00 | 68 | 1017.7 |
| 20260504003050 | 21 | 46 | 3.2 | 12.9 | 0.00 | 0.00 | 0.00 | 67 | 1017.7 |
| 20260504001554 | 21 | 17 | 4.8 | 16.1 | 0.00 | 0.00 | 0.00 | 65 | 1017.6 |
| 20260504000053 | 21 | 47 | 6.4 | 14.5 | 0.00 | 0.00 | 0.00 | 63 | 1017.5 |
| 20260503234555 | 22 | 55 | 6.4 | 17.7 | 0.00 | 0.00 | 0.00 | 61 | 1017.2 |
| 20260503233053 | 23 | 49 | 6.4 | 24.1 | 0.00 | 0.00 | 0.00 | 59 | 1017.2 |
| 20260503231555 | 23 | 54 | 6.4 | 16.1 | 0.00 | 0.00 | 0.00 | 55 | 1017.0 |
| 20260503230052 | 23 | 301 | 6.4 | 16.1 | 0.00 | 0.00 | 0.00 | 54 | 1017.1 |
| 20260503224559 | 24 | 352 | 8.0 | 19.3 | 0.00 | 0.00 | 0.00 | 53 | 1016.9 |
| 20260503223051 | 24 | 297 | 9.7 | 22.5 | 0.00 | 0.00 | 0.00 | 53 | 1017.0 |
| 20260503221600 | 25 | 360 | 9.7 | 19.3 | 0.00 | 0.00 | 0.00 | 53 | 1017.0 |
| 20260503220052 | 25 | 321 | 6.4 | 20.9 | 0.00 | 0.00 | 0.00 | 55 | 1017.0 |
| 20260503214551 | 25 | 360 | 3.2 | 16.1 | 0.00 | 0.00 | 0.00 | 54 | 1016.9 |
| 20260503213054 | 24 | 13 | 4.8 | 16.1 | 0.00 | 0.00 | 0.00 | 55 | 1016.7 |
| 20260503211553 | 24 | 18 | 8.0 | 17.7 | 0.00 | 0.00 | 0.00 | 54 | 1016.8 |
| 20260503210053 | 25 | 326 | 14.5 | 25.7 | 0.00 | 0.00 | 0.00 | 54 | 1016.8 |
| 20260503204614 | 24 | 352 | 4.8 | 16.1 | 0.00 | 0.13 | 0.00 | 56 | 1017.0 |
| 20260503203059 | 25 | 342 | 4.8 | 17.7 | 0.00 | 0.13 | 0.00 | 54 | 1017.2 |